Driggs, ID

12:54 AM MDT on March 30, 2017 (GMT -0600)
Driggs

Weather History for KDIJ - February, 2012

Change the Weather History Date:

Thursday, February 2, 2012

  Actual Average (KJAC) Record (KJAC)
Temperature  
Mean Temperature 24 °F -  
Max Temperature 32 °F 27 °F 42 °F (1989)
Min Temperature 8 °F 0 °F -28 °F (1972)
Degree Days  
Heating Degree Days 42    
Moisture  
Dew Point 23 °F    
Average Humidity 90    
Maximum Humidity 100    
Minimum Humidity 65    
Precipitation  
Precipitation 0.09 in - - ()
Sea Level Pressure  
Sea Level Pressure 30.14 in    
Wind  
Wind Speed 7 mph (North)    
Max Wind Speed 10 mph    
Max Gust Speed -    
Visibility 5 miles    
Events Fog , Snow    
Averages and records for this station are not official NWS values.
T = Trace of Precipitation, MM = Missing Value Source: NWS Daily Summary

Daily Weather History Graph

Daily Weather History Graph

Search for Another Location

Airport or City:

Trip Planner

Search our weather history database for the weather conditions in past years. The results will help you decide how hot, cold, wet, or windy it might be!

Date:

Astronomy

Feb. 02, 2012 Rise Set
Actual Time 7:40 AM MST 5:36 PM MST
Civil Twilight 7:10 AM MST 6:06 PM MST
Nautical Twilight 6:35 AM MST 6:41 PM MST
Astronomical Twilight 6:02 AM MST 7:14 PM MST
Moon 12:46 PM MST (2/2) 3:29 AM MST (2/2)
Length of Visible Light 10h 56m
Length of Day
9h 55m
Waxing Gibbous, 74% of the Moon is Illuminated
Feb 2
Waxing Gibbous
Feb 7
Full
Feb 14
Last Quarter
Feb 21
New
Feb 29
First Quarter

Hourly Weather History & Observations

Time (MST) Temp. Windchill Dew Point Humidity Pressure Visibility Wind Dir Wind Speed Gust Speed Precip Events Conditions
12:46 AM 28.4 °F 22.2 °F 24.8 °F 86% 30.08 in 7.0 mi SSE 5.8 mph - 0.00 in Snow Light Snow
12:56 AM 29.1 °F 23.0 °F 24.1 °F 81% 30.06 in 6.0 mi SE 5.8 mph - 0.00 in Snow Light Snow
1:45 AM 28.4 °F 23.3 °F 24.8 °F 86% 30.08 in 2.5 mi South 4.6 mph - 0.00 in Snow Light Snow
1:56 AM 28.0 °F 24.2 °F 25.2 °F 89% 30.07 in 3.0 mi SSE 3.5 mph - 0.00 in Snow Light Snow
2:18 AM 28.4 °F 24.6 °F 24.8 °F 86% 30.08 in 6.0 mi ENE 3.5 mph - 0.00 in Snow Light Snow
2:56 AM 28.0 °F 21.7 °F 25.2 °F 89% 30.08 in 4.0 mi NE 5.8 mph - 0.00 in Snow Light Snow
3:25 AM 28.4 °F 20.4 °F 26.6 °F 93% 30.09 in 4.0 mi NNE 8.1 mph - 0.00 in Snow Light Snow
3:32 AM 28.4 °F 19.1 °F 24.8 °F 86% 30.09 in 3.0 mi NNE 10.4 mph - 0.00 in Snow Light Snow
3:36 AM 28.4 °F 19.1 °F 24.8 °F 86% 30.09 in 2.5 mi NNE 10.4 mph - 0.00 in Snow Light Snow
3:45 AM 28.4 °F 20.4 °F 24.8 °F 86% 30.09 in 1.8 mi NNE 8.1 mph - 0.00 in Snow Light Snow
3:48 AM 28.4 °F 19.1 °F 24.8 °F 86% 30.09 in 2.0 mi NNE 10.4 mph - 0.00 in Snow Light Snow
3:56 AM 27.1 °F 18.2 °F 25.2 °F 92% 30.08 in 2.0 mi NNE 9.2 mph - 0.00 in Snow Light Snow
4:04 AM 26.6 °F 16.8 °F 24.8 °F 93% 30.09 in 1.5 mi NNE 10.4 mph - 0.00 in Snow Light Snow
4:10 AM 26.6 °F 18.2 °F 24.8 °F 93% 30.09 in 1.2 mi NNE 8.1 mph - 0.00 in Snow Light Snow
4:22 AM 26.6 °F 18.2 °F 24.8 °F 93% 30.08 in 1.0 mi NE 8.1 mph - 0.00 in Snow Light Snow
4:35 AM 26.6 °F 18.2 °F 24.8 °F 93% 30.09 in 0.8 mi NNE 8.1 mph - 0.00 in Snow Light Snow
4:44 AM 26.6 °F 18.2 °F 24.8 °F 93% 30.09 in 1.0 mi North 8.1 mph - 0.00 in Snow Light Snow
4:56 AM 27.1 °F 18.2 °F 25.2 °F 92% 30.10 in 0.8 mi North 9.2 mph - 0.00 in Snow Light Snow
5:22 AM 26.6 °F 17.5 °F 24.8 °F 93% 30.10 in 1.0 mi NNE 9.2 mph - 0.00 in Snow Light Snow
5:32 AM 26.6 °F 18.2 °F 24.8 °F 93% 30.10 in 1.2 mi North 8.1 mph - 0.00 in Snow Light Snow
5:38 AM 26.6 °F 18.2 °F 24.8 °F 93% 30.10 in 2.0 mi North 8.1 mph - 0.00 in Snow Light Snow
5:46 AM 26.6 °F 18.2 °F 24.8 °F 93% 30.10 in 4.0 mi North 8.1 mph - 0.00 in Snow Light Snow
5:56 AM 27.1 °F 18.2 °F 24.1 °F 88% 30.12 in 7.0 mi North 9.2 mph - 0.00 in Snow Light Snow
6:06 AM 26.6 °F 17.5 °F 24.8 °F 93% 30.10 in 10.0 mi North 9.2 mph - 0.00 in Snow Light Snow
6:56 AM 24.1 °F 18.2 °F 22.1 °F 92% 30.14 in 9.0 mi North 4.6 mph - 0.00 in   Overcast
7:10 AM 24.8 °F 16.1 °F 23.0 °F 93% 30.13 in 9.0 mi NNW 8.1 mph - N/A   Overcast
7:16 AM 24.8 °F 16.1 °F 24.8 °F 100% 30.13 in 1.8 mi NNW 8.1 mph - N/A   Overcast
7:19 AM 24.8 °F 16.1 °F 24.8 °F 100% 30.13 in 1.0 mi NNW 8.1 mph - N/A   Overcast
7:27 AM 26.6 °F 18.2 °F 24.8 °F 93% 30.13 in 0.5 mi NNW 8.1 mph - N/A Fog Light Freezing Fog
7:40 AM 26.6 °F 18.2 °F 24.8 °F 93% 30.13 in 1.0 mi NNW 8.1 mph - N/A   Overcast
7:42 AM 24.8 °F 16.1 °F 24.8 °F 100% 30.13 in 1.8 mi NW 8.1 mph - N/A   Overcast
7:44 AM 24.8 °F 16.1 °F 24.8 °F 100% 30.13 in 3.0 mi NW 8.1 mph - N/A   Overcast
7:56 AM 25.2 °F 16.5 °F 23.0 °F 91% 30.16 in 6.0 mi NNW 8.1 mph - N/A   Overcast
8:04 AM 24.8 °F 15.3 °F 23.0 °F 93% 30.14 in 7.0 mi NW 9.2 mph - N/A   Overcast
8:19 AM 24.8 °F 16.9 °F 23.0 °F 93% 30.14 in 6.0 mi NNW 6.9 mph - N/A   Mostly Cloudy
8:40 AM 24.8 °F 17.9 °F 23.0 °F 93% 30.15 in 7.0 mi North 5.8 mph - 0.00 in   Overcast
8:56 AM 26.1 °F 19.4 °F 24.1 °F 92% 30.18 in 5.0 mi North 5.8 mph - 0.00 in Snow Light Snow
9:11 AM 26.6 °F 19.1 °F 24.8 °F 93% 30.16 in 1.8 mi North 6.9 mph - 0.00 in Snow Light Snow
9:19 AM 26.6 °F 20.0 °F 24.8 °F 93% 30.16 in 2.0 mi North 5.8 mph - 0.00 in Snow Light Snow
9:42 AM 26.6 °F 19.1 °F 24.8 °F 93% 30.16 in 1.8 mi NNW 6.9 mph - 0.00 in Snow Light Snow
9:56 AM 27.1 °F 19.7 °F 24.1 °F 88% 30.19 in 3.0 mi NNW 6.9 mph - 0.00 in Snow Light Snow
10:07 AM 26.6 °F 18.2 °F 24.8 °F 93% 30.17 in 9.0 mi NNW 8.1 mph - 0.00 in Snow Light Snow
10:56 AM 27.1 °F 18.2 °F 25.2 °F 92% 30.18 in 2.5 mi NW 9.2 mph - 0.00 in Snow Light Snow
11:11 AM 26.6 °F 19.1 °F 24.8 °F 93% 30.17 in 7.0 mi NW 6.9 mph - 0.00 in   Overcast
11:56 AM 26.1 °F 19.4 °F 24.1 °F 92% 30.18 in 8.0 mi NW 5.8 mph - 0.00 in Snow Light Snow
12:56 PM 26.1 °F 21.9 °F 24.1 °F 92% 30.17 in 10.0 mi NW 3.5 mph - 0.00 in   Overcast
1:20 PM 28.4 °F - 24.8 °F 86% 30.14 in 10.0 mi Calm Calm - 0.01 in   Overcast
1:27 PM 28.4 °F - 24.8 °F 86% 30.14 in 10.0 mi Calm Calm - 0.01 in   Overcast
1:56 PM 28.0 °F - 24.1 °F 85% 30.16 in 10.0 mi Calm Calm - 0.03 in   Overcast
2:26 PM 30.2 °F - 23.0 °F 75% 30.13 in 6.0 mi Calm Calm - 0.01 in   Haze
2:56 PM 32.9 °F - 22.1 °F 65% 30.12 in 10.0 mi Calm Calm - 0.06 in   Mostly Cloudy
3:56 PM 27.1 °F - 22.1 °F 81% 30.16 in 10.0 mi Calm Calm - N/A   Overcast
4:56 PM 25.2 °F - 20.1 °F 81% 30.17 in 10.0 mi Calm Calm - N/A   Overcast
5:56 PM 23.0 °F 17.0 °F 20.1 °F 89% 30.19 in 10.0 mi SSE 4.6 mph - N/A   Mostly Cloudy
6:56 PM 20.1 °F 12.3 °F 18.1 °F 92% 30.23 in 10.0 mi SE 5.8 mph - N/A   Scattered Clouds
7:39 PM 21.2 °F 14.9 °F 19.4 °F 93% 30.16 in 7.0 mi SSE 4.6 mph - 0.00 in   Mostly Cloudy
7:56 PM 21.0 °F 14.6 °F 18.1 °F 89% 30.23 in 10.0 mi SE 4.6 mph - 0.00 in   Overcast
8:56 PM 17.1 °F 10.0 °F 14.0 °F 88% 30.25 in 10.0 mi SE 4.6 mph - N/A   Partly Cloudy
9:56 PM 15.1 °F 6.4 °F 12.0 °F 88% 30.27 in 7.0 mi ESE 5.8 mph - N/A   Clear
10:56 PM 12.0 °F 2.7 °F 10.0 °F 92% 30.28 in 10.0 mi SE 5.8 mph - N/A   Clear
11:56 PM 8.1 °F -2.0 °F 5.0 °F 87% 30.31 in 10.0 mi SE 5.8 mph - N/A   Clear